Regional Weather Roundup
Issued by NWS Wakefield, VA

Home | Current Version | Previous Version | Graphics & Text | Print | Product List | Glossary On
Versions: 1 2 3 4 5 6 7 8 9 10 11 12 13 14 15 16 17 18 19 20 21 22 23 24 25 26 27 28 29 30 31 32 33 34 35 36 37 38 39 40 41 42 43 44 45 46 47 48 49
000
ASUS41 KAKQ 221514
RWRAKQ

REGIONAL WEATHER ROUNDUP
NATIONAL WEATHER SERVICE WAKEFIELD VA
1100 AM EDT FRI MAY 22 2015

Note: "fair" indicates few or no clouds below 12,000 feet with no
significant weather and/or obstructions to visibility. * = Denotes
station may not report precipitation (e.g., rain,snow,etc.),
thunder or fog.

VAZ042-051-052>054-056-221600-
NORTHERN VIRGINIA

CITY           SKY/WX    TMP DP  RH WIND       PRES   REMARKS
WASH NATIONAL  SUNNY     68  44  42 W15       30.11R
DULLES         SUNNY     65  44  46 W10       30.11S
FORT BELVOIR   SUNNY     67  43  42 NW13G21   30.11S
QUANTICO       SUNNY     65  43  44 NW10G18   30.13S
FREDERICKSBRG* SUNNY     67  48  50 W7        30.13R
STAFFORD*      SUNNY     65  45  48 NW10      30.17R
WARRENTON      SUNNY     67  47  47 W13       30.13R
CULPEPER*      SUNNY     65  43  45 W8        30.14R
MANASSAS*      SUNNY     66  43  42 NW14G22   30.12R
LEESBURG*      SUNNY     64  46  52 NW14G22   30.12S
WINCHESTER     SUNNY     64  37  36 W13       30.13R
FRONT ROYAL*   FAIR      63  43  48 W7        30.13R
LURAY*         FAIR      64  45  48 SW7       30.16S
$$

VAZ048-049-060>072-079>083-221600-
CENTRAL AND SOUTH CENTRAL VIRGINIA

CITY           SKY/WX    TMP DP  RH WIND       PRES   REMARKS
RICHMOND       SUNNY     67  44  43 NW12G17   30.15R
CHESTERFIELD*  NOT AVBL
PETERSBURG*    SUNNY     65  42  43 N5        30.17R
HANOVER        SUNNY     65  45  48 W10       30.16R
TAPPAHANNOCK*  SUNNY     66  40  39 W8        30.13S
QUINTON*       FAIR      63  46  53 NW7       30.15R
CHARLOTTSVILLE SUNNY     63  40  42 VRB5      30.15R
GORDONSVILLE*  FAIR      64  43  47 CALM      30.14S
ORANGE*        SUNNY     66  45  45 S8        30.16R
LOUISA*        SUNNY     64  45  48 W9        30.14R
BUMPASS*       FAIR      64  46  52 W5        30.15R
FARMVILLE*     SUNNY     65  42  43 NW5       30.16R
CREWE*         NOT AVBL
FORT PICKETT*  FAIR      63  43  48 NW8G16    30.17R
CHASE CITY*    FAIR      65  46  50 N7        30.19R
CLARKSVILLE*   FAIR      63  45  51 NW6       30.19R
SOUTH HILL*    SUNNY     62  43  48 CALM      30.23R
LAWRENCEVILLE* FAIR      64  43  45 N8        30.17R
EMPORIA*       SUNNY     63  43  48 NW7       30.18R
$$

VAZ088>098-221600-
SOUTHEAST VIRGINIA

CITY           SKY/WX    TMP DP  RH WIND       PRES   REMARKS
NORFOLK        SUNNY     66  42  41 N9G17     30.13R
VIRGINIA BEACH SUNNY     67  47  48 N15       30.12R
NORFOLK NAVAL  SUNNY     70  42  36 N10       30.15R
WEST POINT*    SUNNY     67  43  42 NW8       30.16R
SALUDA*        FAIR      63  47  56 NW12G17   30.13R
NEWPORT NEWS   SUNNY     70  46  42 NW14      30.14R
LANGLEY AFB    SUNNY     65  45  48 NW9       30.12R
FORT EUSTIS    SUNNY     65  48  53 N9        30.12R
WILLIAMSBURG*  SUNNY     68  50  52 NW9       30.15R
HR EXEC AP*    FAIR      66  46  48 N9        30.16R
FRANKLIN*      SUNNY     65  43  45 N8        30.16R
WAKEFIELD      SUNNY     66  45  46 VRB6      30.15R
$$

VAZ020-022-025-037-045-221600-
WEST CENTRAL AND SOUTHWEST VIRGINIA

CITY           SKY/WX    TMP DP  RH WIND       PRES   REMARKS
STAUNTON*      SUNNY     63  38  40 W5        30.18S
WAYNESBORO*    FAIR      59  39  47 SW7       30.17S
HOT SPRINGS VA SUNNY     50  37  60 NW13      30.20R
LYNCHBURG      SUNNY     63  37  38 NW8       30.20R
DANVILLE       SUNNY     66  42  41 N8        30.21R
SOUTH BOSTON*  FAIR      64  41  42 N6        30.20R
MARTINSVILLE   SUNNY     64  41  42 NW8       30.24S
ROANOKE        MOSUNNY   61  39  44 W13       30.23S
BLACKSBURG     SUNNY     54  40  59 W6        30.27S
DUBLIN*        SUNNY     57  40  53 NW10      30.27R
MARION*        SUNNY     55  40  56 W12G22    30.30R
HILLSVILLE*    SUNNY     53  36  52 N12G22    30.25R
RICHLANDS*     PTSUNNY   50  26  38 N6        30.30R
WISE*          MOSUNNY   54  41  62 W3        30.30S
ABINGDON*      MOSUNNY   58  41  53 E5        30.29R
$$

MDZ021>025-VAZ099-100-221600-
SOUTHERN MARYLAND AND THE DELMARVA PENINSULA

CITY           SKY/WX    TMP DP  RH WIND       PRES   REMARKS
PATUXENT RIVER SUNNY     65  45  48 NW15      30.10S
BAY BRIDGE APT   N/A    N/A N/A N/A W9        30.08S
LEONARDTOWN    SUNNY     63  45  51 W10       30.12S
DOVER          SUNNY     65  49  56 W14       30.02R
GEORGETOWN     SUNNY     65  45  48 NW7G18    30.07R
EASTON         SUNNY     64  50  59 NW9       30.12
CAMBRIDGE      SUNNY     63  45  51 W14       30.09R
SALISBURY      SUNNY     65  46  50 NW16      30.08R
OCEAN CITY     SUNNY     65  48  54 NW17      30.06R
WALLOPS ISLAND SUNNY     66  49  54 W10       30.09R
ACCOMACK*      SUNNY     63  50  63 NW13G18   30.11R
$$

NCZ012>017-030>032-221600-
NORTH CENTRAL AND EASTERN NORTH CAROLINA

CITY           SKY/WX    TMP DP  RH WIND       PRES   REMARKS
ROANOKE RAPIDS FAIR      64  43  45 N9        30.17S
RALEIGH        MOSUNNY   64  44  48 VRB6      30.21R
ELIZABETH CITY SUNNY     66  49  54 N8        30.14R
AHOSKIE*       SUNNY     63  43  47 N8        30.17R
EDENTON*       SUNNY     64  48  56 N7        30.15S
CURRITUCK*     SUNNY     64  43  45 N8        30.14R
KILL DEVIL HLS SUNNY     64  51  63 N10       30.13R
MANTEO         MOSUNNY   64  49  59 N9G17     30.14R
CAPE HATTERAS  MOSUNNY   64  52  64 N8        30.14R
TARBORO*       FAIR      66  45  46 NE9       30.18R
GOLDSBORO      SUNNY     66  47  50 VRB2      30.16R
WASHINGTON     SUNNY    N/A N/A N/A N8        30.16S
GREENVILLE     MOSUNNY   64  48  55 N7        30.18R
NEW BERN       MOSUNNY   66  50  56 N9        30.18R
WILMINGTON     CLOUDY    67  54  63 NE13      30.17R
$$

VAZ048-221600-
ELSEWHERE

CITY           SKY/WX    TMP DP  RH WIND       PRES   REMARKS
HARRISBURG PA  MOSUNNY   67  41  38 NW17G29   30.03S
BALTIMORE      SUNNY     67  44  43 W16G26    30.07R
ANNAPOLIS      SUNNY     65  45  48 W5        30.08R
ANDREWS AFB    SUNNY     65  43  45 W13       30.09S
PHILADELPHIA   SUNNY     68  41  37 W14G21    30.00S
HENDERSON NC   SUNNY     63  42  46 NW6       30.20R
GREENSBORO     MOSUNNY   64  41  42 VRB7      30.21R
ROCKY MOUNT    SUNNY     66  45  46 N13       30.18R
$$

VAZ100-221600-
MARINE

STATION/POSITION TIME  TEMP    WIND        PRES    WAVE   SWELL
                       AIR SEA DIR/SP/G            HT/PER HT/PER
                 (UTC) (F)     (DEG/KT/KT) (MB)    (FT/S) (FT/S)
BRANDYWINE LGT   1400   58 62  320/ 14/ 20 1017.1R
CAPE MAY NJ      1400   61 64  310/ 17/ 21 1016.7R
LEWES DE         1400   60 62  310/ 15/ 18 1017.1R
15NM E FENWICK I 1450   58 58              1017.4R   3/ 5
OCEAN-CITY-INLET 1400   60 60  320/  9/ 11 1017.3R
WACHAPREAGUE VA  1400   63 63  340/  3/ 12 1019.0R
THOMAS POINT MD  1500   62 65  280/ 14/ 16 1019.4R
GOOSES REEF MD   1500   62 65  310/ 12/ 16 1020.3R   2/ 3
SOLOMONS ISLAND  1400      67                N/A
BISHOPS HEAD MD  1400   60 62  310/ 18/ 21 1018.6R
PINEY POINT MD   1400          330/ 17/ 19   N/A
CAMBRIDGE MD     1400   60 68  310/ 13/ 16 1018.6R
LEWISETTA VA     1400   62 67              1019.2R
RAPPAHANNOCK LGT 1400          310/ 16/ 18 1019.8R
STINGRAY PT      1500   62 69  300/ 14/ 16 1019.6R   1/ 2
YORK RVR RNG VA  1400   60     330/ 14/ 17 1019.2R
YORKTOWN VA      1400   61 70  320/ 12/ 15 1019.7R
JAMESTOWN VA     1500   62 74  320/ 12/ 16 1019.6R
DOMINION TERM VA 1400   63      70/  3/  9 1019.9R
KIPTOPEKE VA     1400      70  340/ 16/ 19   N/A
CHES BAY BRIDGE  1400   61 66  320/ 16/ 17 1019.3R
CAPE HENRY VA    1400   59     330/ 14/ 18 1018.4R
CHESAPEAKE LGHT  1400   60     340/ 16/ 18 1019.9R
WILLOUBY STN VA  1400   61     340/ 15/ 17 1020.4R
CAPE HENRY BUOY  1458      62                N/A     4/ 6
1ST LANDING BUOY 1500      66              1020.0R
CAPE CHARLES BUO 1426      65                N/A     4/ 6   2/ 9
OFFSHORE WE BUOY 1411      60                N/A     5/ 4   2/12
64NM E OF VA BCH 1450   59 60  330/ 14/ 16 1018.8R   6/ 8   5/ 8
DUCK PIER NC     1400   59 66  350/ 12/ 14 1018.9R
44100 DUCK FRF   1424      60                N/A     6/ 7
44056 DUCK FRF   1411      64                N/A     4/ 6
OREGON INLET NC  1400   61 68  340/ 12/ 16 1019.9R
HATTERAS NC      1400   62 71  350/ 14/ 17 1019.7R
DIAMOND SHLS NC  1450   62 76  360/ 14/ 19 1020.2R   4/ 7   3/ 7
CAPE LOOKOUT NC  1500   64     360/ 13/ 17 1020.9R
$$



USA.gov is the U.S. government's official web portal to all federal, state and local government web resources and services.